DW3940 Weather Reports


Display with metric or nautical units.
time (UTC)temp
F
wind
direction
speed
MPH
gust
MPH
rain 1hr
in
rain 24hr
in
rain mn
in
humidity
%
barometer
mb
20180722105517 72 88 9.0 17.0 0.00 0.00 0.00 80 1009.5
20180722105017 72 76 8.0 13.0 0.00 0.00 0.00 81 1009.5
20180722104517 71 65 7.0 14.0 0.00 0.00 0.00 81 1009.4
20180722104017 71 69 10.0 17.0 0.00 0.00 0.00 82 1009.4
20180722103517 71 63 11.0 17.0 0.00 0.00 0.00 80 1009.6
20180722103017 72 87 7.0 13.0 0.00 0.00 0.00 78 1009.5
20180722102517 72 87 7.0 17.0 0.00 0.00 0.00 78 1009.6
20180722102017 72 98 9.0 17.0 0.00 0.00 0.00 77 1009.6
20180722101517 72 105 9.0 14.0 0.00 0.00 0.00 77 1009.6
20180722101017 72 95 8.0 16.0 0.00 0.00 0.00 78 1009.6
20180722100517 72 95 10.0 16.0 0.00 0.00 0.00 78 1009.7
20180722100017 71 79 7.0 15.0 0.00 0.00 0.00 79 1009.7
20180722095517 71 66 5.0 14.0 0.00 0.00 0.00 79 1009.7
20180722095017 71 83 7.0 18.0 0.00 0.00 0.00 79 1009.7
20180722094517 71 84 9.0 18.0 0.00 0.00 0.00 79 1009.7
20180722094017 71 68 10.0 18.0 0.00 0.00 0.00 79 1009.6
20180722093517 71 102 9.0 14.0 0.00 0.00 0.00 79 1009.6
20180722093017 71 85 9.0 15.0 0.00 0.00 0.00 81 1009.7
20180722092517 70 82 8.0 15.0 0.00 0.00 0.00 82 1009.6
20180722092017 70 82 6.0 11.0 0.00 0.00 0.00 83 1009.7
20180722091518 70 100 6.0 11.0 0.00 0.00 0.00 83 1009.8
20180722091017 70 98 5.0 11.0 0.00 0.00 0.00 82 1009.8
20180722090517 70 86 4.0 10.0 0.00 0.00 0.00 83 1009.8
20180722090018 70 87 6.0 15.0 0.00 0.00 0.00 83 1009.8
20180722085517 69 85 8.0 15.0 0.00 0.00 0.00 84 1009.7
20180722085017 69 93 8.0 15.0 0.00 0.00 0.00 83 1009.7
20180722084517 69 88 9.0 20.0 0.00 0.00 0.00 83 1009.7
20180722084017 69 89 12.0 20.0 0.00 0.00 0.00 83 1009.7
20180722083517 70 98 11.0 18.0 0.00 0.00 0.00 83 1009.6
20180722083017 70 80 10.0 18.0 0.00 0.00 0.00 83 1009.6
20180722082517 70 72 10.0 18.0 0.00 0.00 0.00 83 1009.6
20180722082017 70 75 6.0 14.0 0.00 0.00 0.00 83 1009.5
20180722081517 70 66 7.0 13.0 0.00 0.00 0.00 83 1009.5
20180722081017 70 78 7.0 12.0 0.00 0.00 0.00 84 1009.5
20180722080517 69 83 6.0 14.0 0.00 0.00 0.00 84 1009.5
20180722080017 69 77 8.0 14.0 0.00 0.00 0.00 84 1009.4
20180722075517 69 96 8.0 14.0 0.00 0.00 0.00 85 1009.4
20180722075017 69 85 9.0 16.0 0.00 0.00 0.00 85 1009.4
20180722074517 69 75 8.0 16.0 0.00 0.00 0.00 85 1009.4
20180722074017 68 71 9.0 15.0 0.00 0.00 0.00 85 1009.4
20180722073517 68 88 8.0 13.0 0.00 0.00 0.00 85 1009.4
20180722073017 68 70 7.0 14.0 0.00 0.00 0.00 86 1009.4
20180722072517 68 64 9.0 14.0 0.00 0.00 0.00 85 1009.5
20180722072017 68 91 6.0 13.0 0.00 0.00 0.00 86 1009.4
20180722071517 68 100 7.0 19.0 0.00 0.00 0.00 86 1009.4
20180722071017 68 69 10.0 19.0 0.00 0.00 0.00 87 1009.3
20180722070517 67 75 9.0 15.0 0.00 0.00 0.00 87 1009.3
20180722070017 67 82 9.0 15.0 0.00 0.00 0.00 88 1009.3
20180722065517 67 63 10.0 15.0 0.00 0.00 0.00 88 1009.3
20180722065017 67 86 6.0 14.0 0.00 0.00 0.00 88 1009.3
20180722064517 67 70 8.0 14.0 0.00 0.00 0.00 88 1009.3
20180722064017 67 81 5.0 14.0 0.00 0.00 0.00 89 1009.4
20180722063517 67 81 8.0 16.0 0.00 0.00 0.00 89 1009.4
20180722063017 67 82 9.0 16.0 0.00 0.00 0.00 88 1009.5
20180722062517 67 81 9.0 16.0 0.00 0.00 0.00 89 1009.5
20180722062017 66 84 10.0 16.0 0.00 0.00 0.00 89 1009.5
20180722061517 66 85 7.0 16.0 0.00 0.00 0.00 89 1009.5
20180722061017 66 83 9.0 16.0 0.00 0.00 0.00 89 1009.6
20180722060517 66 88 9.0 16.0 0.00 0.00 0.00 89 1009.6
20180722060017 66 86 11.0 16.0 0.00 0.00 0.00 89 1009.6
20180722055517 66 81 9.0 16.0 0.00 0.00 0.00 89 1009.6
20180722055017 66 74 7.0 16.0 0.00 0.00 0.00 89 1009.6
20180722054517 66 73 9.0 16.0 0.00 0.00 0.00 90 1009.6
20180722054017 66 83 8.0 14.0 0.00 0.00 0.00 89 1009.6
20180722053517 66 70 8.0 14.0 0.00 0.00 0.00 90 1009.5
20180722053017 66 79 8.0 16.0 0.00 0.00 0.00 90 1009.5
20180722052517 66 79 9.0 16.0 0.00 0.00 0.00 89 1009.5
20180722052016 66 89 8.0 17.0 0.00 0.00 0.00 90 1009.6
20180722051517 66 93 9.0 17.0 0.00 0.00 0.00 89 1009.5
20180722051017 66 90 7.0 12.0 0.00 0.00 0.00 90 1009.5
20180722050516 66 84 6.0 12.0 0.00 0.00 0.00 90 1009.5
20180722050017 66 79 6.0 13.0 0.00 0.00 0.00 90 1009.5
20180722045517 66 87 9.0 14.0 0.00 0.00 0.00 90 1009.6
20180722045016 66 87 8.0 14.0 0.00 0.00 0.00 89 1009.6
20180722044517 66 74 5.0 17.0 0.00 0.00 0.00 90 1009.6
20180722044017 66 89 7.0 17.0 0.00 0.00 0.00 90 1009.6
20180722043517 66 82 5.0 12.0 0.00 0.00 0.00 90 1009.6
20180722043016 66 79 6.0 11.0 0.00 0.00 0.00 90 1009.6
20180722042516 66 73 4.0 12.0 0.00 0.00 0.00 90 1009.6
20180722042016 66 92 5.0 13.0 0.00 0.00 0.00 90 1009.6
20180722041516 66 83 6.0 13.0 0.00 0.00 0.00 90 1009.6
20180722041017 66 84 5.0 13.0 0.00 0.00 0.00 90 1009.6
20180722040517 66 89 8.0 13.0 0.00 0.00 0.00 90 1009.6
20180722040017 66 79 5.0 12.0 0.00 0.00 0.00 90 1009.5
20180722035516 66 79 7.0 12.0 0.00 0.00 0.00 90 1009.5
20180722035017 66 77 4.0 12.0 0.00 0.00 0.00 90 1009.5
20180722034517 66 86 8.0 14.0 0.00 0.00 0.00 91 1009.5
20180722034017 66 84 8.0 14.0 0.00 0.00 0.00 91 1009.5
20180722033516 66 84 9.0 14.0 0.00 0.00 0.00 90 1009.5
20180722033017 66 86 8.0 14.0 0.00 0.00 0.00 90 1009.5
20180722032517 66 87 8.0 14.0 0.00 0.00 0.00 90 1009.5
20180722032017 66 82 6.0 14.0 0.00 0.00 0.00 90 1009.5
20180722031517 66 84 7.0 14.0 0.00 0.00 0.00 90 1009.5
20180722031017 66 77 5.0 12.0 0.00 0.00 0.00 91 1009.5
20180722030517 66 82 6.0 12.0 0.00 0.00 0.00 90 1009.4
20180722030017 66 82 6.0 15.0 0.00 0.00 0.00 90 1009.4
20180722025517 66 73 6.0 15.0 0.00 0.00 0.00 91 1009.4
20180722025017 66 75 5.0 10.0 0.00 0.00 0.00 91 1009.4
20180722024516 66 76 4.0 9.0 0.00 0.00 0.00 91 1009.4
20180722024017 66 76 5.0 12.0 0.00 0.00 0.00 91 1009.4
20180722023517 66 83 7.0 12.0 0.00 0.00 0.00 91 1009.4
20180722023016 66 81 6.0 11.0 0.00 0.00 0.00 91 1009.3
20180722022516 66 77 5.0 10.0 0.00 0.00 0.00 91 1009.3
20180722022016 66 83 6.0 11.0 0.00 0.00 0.00 91 1009.3
20180722021516 66 78 6.0 11.0 0.00 0.00 0.00 91 1009.3
20180722021016 66 84 4.0 11.0 0.00 0.00 0.00 91 1009.3
20180722020516 66 94 7.0 13.0 0.00 0.00 0.00 91 1009.3
20180722020017 66 87 6.0 13.0 0.00 0.00 0.00 91 1009.3
20180722015518 66 85 6.0 13.0 0.00 0.00 0.00 91 1009.3
20180722015016 66 88 4.0 13.0 0.00 0.00 0.00 91 1009.3
20180722014516 66 93 7.0 13.0 0.00 0.00 0.00 90 1009.4
20180722014017 66 91 6.0 15.0 0.00 0.00 0.00 90 1009.3
20180722013516 67 91 9.0 16.0 0.00 0.00 0.00 90 1009.3
20180722013017 67 87 8.0 16.0 0.00 0.00 0.00 89 1009.3
20180722012516 67 92 8.0 14.0 0.00 0.00 0.00 89 1009.3
20180722012016 67 91 7.0 14.0 0.00 0.00 0.00 89 1009.3
20180722011516 67 86 8.0 15.0 0.00 0.00 0.00 89 1009.3
20180722011017 67 93 7.0 15.0 0.00 0.00 0.00 89 1009.3
20180722010517 67 94 6.0 12.0 0.00 0.00 0.00 89 1009.3
20180722010017 67 104 8.0 12.0 0.00 0.00 0.00 89 1009.3
20180722005517 67 95 7.0 12.0 0.00 0.00 0.00 89 1009.2
20180722005017 67 103 7.0 12.0 0.00 0.00 0.00 89 1009.2
20180722004517 67 98 7.0 14.0 0.00 0.00 0.00 89 1009.2
20180722004017 67 96 8.0 14.0 0.00 0.00 0.00 89 1009.1
20180722003516 67 97 6.0 13.0 0.00 0.00 0.00 89 1009.2
20180722003016 67 95 7.0 12.0 0.00 0.00 0.00 89 1009.1
20180722002516 67 96 7.0 12.0 0.00 0.00 0.00 89 1009.1
20180722002016 67 86 7.0 12.0 0.00 0.00 0.00 89 1009.0
20180722001516 67 101 8.0 13.0 0.00 0.00 0.00 89 1009.0
20180722001016 67 103 7.0 13.0 0.00 0.00 0.00 89 1009.0
20180722000516 67 99 8.0 14.0 0.00 0.00 0.00 89 1009.0
20180722000016 67 104 7.0 15.0 0.00 0.00 0.00 89 1008.9
20180721235516 67 101 9.0 15.0 0.00 0.00 0.00 89 1009.0
20180721235016 67 92 8.0 14.0 0.00 0.00 0.00 89 1008.9
20180721234516 67 95 7.0 14.0 0.00 0.00 0.00 89 1008.9
20180721234016 68 100 7.0 14.0 0.00 0.00 0.00 88 1008.9
20180721233516 68 90 5.0 12.0 0.00 0.00 0.00 88 1008.9
20180721233016 68 87 7.0 12.0 0.00 0.00 0.00 88 1008.9
20180721232516 68 85 6.0 11.0 0.00 0.00 0.00 88 1008.9
20180721232017 68 88 5.0 13.0 0.00 0.00 0.00 88 1008.9
20180721231016 68 96 9.0 16.0 0.00 0.00 0.00 88 1008.9
20180721230516 68 96 8.0 14.0 0.00 0.00 0.00 88 1008.8
20180721230016 68 102 7.0 17.0 0.00 0.00 0.00 88 1008.8
20180721225516 68 90 10.0 17.0 0.00 0.00 0.00 88 1008.8
20180721225016 68 96 9.0 16.0 0.00 0.00 0.00 88 1008.8
20180721224516 68 99 8.0 17.0 0.00 0.00 0.00 88 1008.8
20180721224016 68 99 10.0 17.0 0.00 0.00 0.00 88 1008.8
20180721223516 68 96 7.0 14.0 0.00 0.00 0.00 88 1008.8
20180721223018 68 96 7.0 17.0 0.00 0.00 0.00 88 1008.8
20180721222516 68 87 10.0 19.0 0.00 0.00 0.00 88 1008.8
20180721222017 68 87 9.0 19.0 0.00 0.00 0.00 88 1008.8
20180721221517 68 100 8.0 17.0 0.00 0.00 0.00 88 1008.8
20180721221016 68 82 8.0 17.0 0.00 0.00 0.00 88 1008.8
20180721220519 68 85 9.0 15.0 0.00 0.00 0.00 88 1008.8
20180721220016 68 82 7.0 18.0 0.00 0.00 0.00 88 1008.9
20180721215516 68 91 9.0 18.0 0.00 0.00 0.00 88 1008.9
20180721215016 69 102 9.0 16.0 0.00 0.00 0.00 88 1008.9
20180721214516 69 95 9.0 14.0 0.00 0.00 0.00 88 1008.9
20180721214016 69 97 9.0 16.0 0.00 0.00 0.00 88 1008.9
20180721213516 69 94 10.0 17.0 0.00 0.00 0.00 88 1008.8
20180721213016 69 93 11.0 17.0 0.00 0.00 0.00 88 1008.8
20180721212516 69 86 8.0 17.0 0.00 0.00 0.00 88 1008.9
20180721212016 69 89 5.0 11.0 0.00 0.00 0.00 88 1008.8
20180721211516 69 94 7.0 15.0 0.00 0.00 0.00 88 1008.8
20180721211016 69 95 10.0 15.0 0.00 0.00 0.00 88 1008.9
20180721210516 69 100 9.0 17.0 0.00 0.00 0.00 88 1008.9
20180721210016 69 98 10.0 17.0 0.00 0.00 0.00 88 1008.9
20180721205517 69 100 7.0 16.0 0.00 0.00 0.00 88 1008.9
20180721205017 69 102 9.0 16.0 0.00 0.00 0.00 88 1008.8
20180721204516 69 97 8.0 15.0 0.00 0.00 0.00 88 1008.8
20180721204017 69 95 8.0 15.0 0.00 0.00 0.00 88 1008.7
20180721203517 69 94 8.0 15.0 0.00 0.00 0.00 88 1008.7
20180721203016 69 91 8.0 14.0 0.00 0.00 0.00 88 1008.7
20180721202516 69 91 8.0 14.0 0.00 0.00 0.00 88 1008.7
20180721202016 69 95 8.0 18.0 0.00 0.00 0.00 88 1008.7
20180721201517 69 103 9.0 18.0 0.00 0.00 0.00 88 1008.7
20180721201016 69 96 9.0 18.0 0.00 0.00 0.00 88 1008.7
20180721200516 69 83 8.0 16.0 0.00 0.00 0.00 88 1008.7
20180721200016 69 98 8.0 15.0 0.00 0.00 0.00 88 1008.7
20180721195516 69 93 9.0 15.0 0.00 0.00 0.00 88 1008.7
20180721195016 69 87 7.0 15.0 0.00 0.00 0.00 88 1008.6
20180721194516 69 76 6.0 11.0 0.00 0.00 0.00 88 1008.7
20180721194017 69 82 6.0 11.0 0.00 0.00 0.00 88 1008.7
20180721193516 69 77 5.0 11.0 0.00 0.00 0.00 88 1008.6
20180721193016 69 72 6.0 15.0 0.00 0.00 0.00 87 1008.6
20180721192516 69 77 7.0 15.0 0.00 0.00 0.00 87 1008.7
20180721192016 69 76 7.0 13.0 0.00 0.00 0.00 87 1008.7
20180721191516 69 75 7.0 13.0 0.00 0.00 0.00 87 1008.7
20180721191016 69 69 6.0 14.0 0.00 0.00 0.00 87 1008.7
20180721190516 69 78 6.0 14.0 0.00 0.00 0.00 86 1008.7
20180721190016 69 77 6.0 10.0 0.00 0.00 0.00 86 1008.7
20180721185516 70 79 6.0 12.0 0.00 0.00 0.00 86 1008.6
20180721185016 70 77 7.0 12.0 0.00 0.00 0.00 86 1008.6
20180721184516 70 73 7.0 12.0 0.00 0.00 0.00 86 1008.6
20180721184016 70 73 6.0 11.0 0.00 0.00 0.00 86 1008.5
20180721183516 70 77 5.0 11.0 0.00 0.00 0.00 85 1008.6
20180721183016 70 76 6.0 12.0 0.00 0.00 0.00 85 1008.6
20180721182516 70 80 6.0 14.0 0.00 0.00 0.00 85 1008.6
20180721182016 70 78 7.0 14.0 0.00 0.00 0.00 85 1008.6
20180721181516 70 71 6.0 12.0 0.00 0.00 0.00 85 1008.7
20180721181017 71 78 7.0 13.0 0.00 0.00 0.00 84 1008.8
20180721180516 71 82 7.0 15.0 0.00 0.00 0.00 84 1008.8
20180721180017 71 82 9.0 15.0 0.00 0.00 0.00 83 1008.8
20180721175516 71 81 6.0 14.0 0.00 0.00 0.00 83 1008.8
20180721175016 71 87 6.0 16.0 0.00 0.00 0.00 83 1008.7
20180721174516 71 92 9.0 16.0 0.00 0.00 0.00 83 1008.6
20180721174016 71 83 6.0 12.0 0.00 0.00 0.00 83 1008.5
20180721173516 71 82 6.0 14.0 0.00 0.00 0.00 82 1008.5
20180721173016 71 86 8.0 15.0 0.00 0.00 0.00 82 1008.4
20180721172516 71 84 8.0 15.0 0.00 0.00 0.00 81 1008.4
20180721172017 72 67 9.0 14.0 0.00 0.00 0.00 81 1008.3
20180721171516 72 65 9.0 14.0 0.00 0.00 0.00 81 1008.2
20180721171017 72 71 8.0 17.0 0.00 0.00 0.00 81 1008.2
20180721170516 72 73 8.0 17.0 0.00 0.00 0.00 80 1008.2
20180721170016 72 76 8.0 15.0 0.00 0.00 0.00 80 1008.1
20180721165516 72 70 6.0 13.0 0.00 0.00 0.00 80 1008.1
20180721165016 72 75 8.0 16.0 0.00 0.00 0.00 80 1008.0
20180721164516 72 76 9.0 16.0 0.00 0.00 0.00 79 1008.1
20180721164016 73 81 8.0 15.0 0.00 0.00 0.00 79 1008.1
20180721163516 73 77 8.0 16.0 0.00 0.00 0.00 79 1008.0
20180721163016 73 63 9.0 16.0 0.00 0.00 0.00 78 1008.0
20180721162516 73 73 8.0 16.0 0.00 0.00 0.00 78 1008.0
20180721162016 73 74 7.0 16.0 0.00 0.00 0.00 78 1008.0
20180721161516 73 82 10.0 16.0 0.00 0.00 0.00 77 1008.0
20180721161016 73 81 10.0 16.0 0.00 0.00 0.00 77 1008.0
20180721160516 74 76 10.0 16.0 0.00 0.00 0.00 76 1007.9
20180721160016 74 90 8.0 15.0 0.00 0.00 0.00 76 1007.9
20180721155516 74 83 10.0 18.0 0.00 0.00 0.00 76 1007.8
20180721155016 74 90 10.0 18.0 0.00 0.00 0.00 76 1007.8
20180721154516 74 85 7.0 19.0 0.00 0.00 0.00 76 1007.7
20180721154016 74 84 10.0 19.0 0.00 0.00 0.00 76 1007.7
20180721153516 74 71 10.0 16.0 0.00 0.00 0.00 76 1007.7
20180721153016 74 74 6.0 12.0 0.00 0.00 0.00 77 1007.6
20180721152516 74 81 7.0 11.0 0.00 0.00 0.00 77 1007.7
20180721152016 74 74 6.0 12.0 0.00 0.00 0.00 76 1007.7
20180721151516 74 70 6.0 16.0 0.00 0.00 0.00 76 1007.6
20180721151016 74 85 10.0 16.0 0.00 0.00 0.00 75 1007.6
20180721150516 75 89 7.0 15.0 0.00 0.00 0.00 74 1007.7
20180721150016 75 93 9.0 15.0 0.00 0.00 0.00 74 1007.7
20180721145516 75 92 8.0 16.0 0.00 0.00 0.00 73 1007.7
20180721145017 75 84 9.0 17.0 0.00 0.00 0.00 73 1007.6
20180721144518 75 80 10.0 17.0 0.00 0.00 0.00 73 1007.5
20180721144016 75 75 7.0 14.0 0.00 0.00 0.00 73 1007.5
20180721143516 75 96 8.0 18.0 0.00 0.00 0.00 73 1007.4
20180721143016 75 91 11.0 18.0 0.00 0.00 0.00 73 1007.3
20180721142516 75 100 12.0 18.0 0.00 0.00 0.00 72 1007.3
20180721142016 76 88 10.0 17.0 0.00 0.00 0.00 72 1007.3
20180721141515 75 84 9.0 16.0 0.00 0.00 0.00 72 1007.2
20180721141016 75 83 10.0 18.0 0.00 0.00 0.00 73 1007.3
20180721140516 75 86 9.0 18.0 0.00 0.00 0.00 72 1007.2
20180721140016 75 78 9.0 18.0 0.00 0.00 0.00 72 1007.2
20180721135516 76 86 10.0 20.0 0.00 0.00 0.00 72 1007.3
20180721135016 76 69 11.0 20.0 0.00 0.00 0.00 71 1007.3
20180721134516 76 83 7.0 14.0 0.00 0.00 0.00 72 1007.4
20180721134016 76 101 8.0 16.0 0.00 0.00 0.00 71 1007.3
20180721133516 75 104 8.0 16.0 0.00 0.00 0.00 72 1007.3
20180721133016 75 101 8.0 15.0 0.00 0.00 0.00 72 1007.4
20180721132516 75 97 10.0 16.0 0.00 0.00 0.00 72 1007.4
20180721132016 75 91 11.0 16.0 0.00 0.00 0.00 72 1007.4
20180721131516 75 89 8.0 14.0 0.00 0.00 0.00 73 1007.4
20180721131016 75 92 7.0 14.0 0.00 0.00 0.00 73 1007.4
20180721130516 75 102 9.0 13.0 0.00 0.00 0.00 74 1007.5
20180721130016 75 100 8.0 18.0 0.00 0.00 0.00 73 1007.5
20180721125516 75 85 10.0 19.0 0.00 0.00 0.00 72 1007.5
20180721125015 75 96 10.0 19.0 0.00 0.00 0.00 72 1007.5
20180721124516 76 102 10.0 16.0 0.00 0.00 0.00 72 1007.5
20180721124016 76 94 8.0 18.0 0.00 0.00 0.00 74 1007.6
20180721123516 75 85 11.0 18.0 0.00 0.00 0.00 74 1007.6
20180721123016 75 105 7.0 14.0 0.00 0.00 0.00 74 1007.7
20180721122516 75 83 8.0 14.0 0.00 0.00 0.00 75 1007.7
20180721122016 75 88 8.0 17.0 0.00 0.00 0.00 75 1007.7
20180721121516 75 99 10.0 17.0 0.00 0.00 0.00 75 1007.7
20180721121018 75 91 8.0 18.0 0.00 0.00 0.00 75 1007.7
20180721120518 75 82 10.0 18.0 0.00 0.00 0.00 73 1007.6
20180721120018 75 101 5.0 14.0 0.00 0.00 0.00 75 1007.5
20180721115518 75 106 7.0 14.0 0.00 0.00 0.00 74 1007.5
20180721115018 75 113 8.0 15.0 0.00 0.00 0.00 74 1007.5
20180721114517 75 108 9.0 15.0 0.00 0.00 0.00 73 1007.6
20180721114018 75 87 10.0 15.0 0.00 0.00 0.00 73 1007.5
20180721113517 75 89 6.0 15.0 0.00 0.00 0.00 73 1007.5
20180721113018 74 90 9.0 18.0 0.00 0.00 0.00 74 1007.6
20180721112517 74 108 12.0 18.0 0.00 0.00 0.00 74 1007.6
20180721112017 74 88 11.0 17.0 0.00 0.00 0.00 74 1007.5
20180721111517 74 92 10.0 17.0 0.00 0.00 0.00 75 1007.5
20180721111018 74 107 9.0 17.0 0.00 0.00 0.00 77 1007.5
20180721110517 73 82 10.0 23.0 0.00 0.00 0.00 78 1007.5
20180721110018 73 98 13.0 23.0 0.00 0.00 0.00 79 1007.5